Regional Weather Roundup
Issued by NWS State College, PA

Home | Current Version | Previous Version | Graphics & Text | Print | Product List | Glossary Off
Versions: 1 2 3 4 5 6 7 8 9 10 11 12 13 14 15 16 17 18 19 20 21 22 23 24 25 26 27 28 29 30 31 32 33 34 35 36 37 38 39 40 41 42 43 44 45 46 47 48 49 50

000
ASUS41 KCTP 232110
RWRCTP

REGIONAL WEATHER ROUNDUP
NATIONAL WEATHER SERVICE STATE COLLEGE PA
500 PM EDT FRI JUN 23 2017

Note: "fair" indicates few or no clouds below 12,000 feet with no
significant weather and/or obstructions to visibility.

* = STATION THAT DOES NOT REPORT PRECIPITATION /E.G. RAIN...SNOW...ETC/
    THUNDER OR FOG.

PAZ002>004-007>009-013>016-020>023-029>032-232200-
WESTERN PENNSYLVANIA

CITY           SKY/WX    TMP DP  RH WIND       PRES   REMARKS
ERIE           HVY RAIN  72  70  93 SW5       29.58S VSB 1/2
MEADVILLE      CLOUDY    70  69  97 SW7       29.64S
FRANKLIN*      CLOUDY    70  66  88 SW12      29.66R
NEW CASTLE     LGT RAIN  72  70  94 SW7       29.66S
BEAVER COUNTY  RAIN      68  68 100 SW6       29.68S
BUTLER*        CLOUDY    73  70  88 W14       29.67S
PITTSBURGH INT LGT RAIN  72  70  93 W8        29.67F FOG
PITTSBURGH     LGT RAIN  73  68  84 SW14      29.68S
INDIANA*       PTSUNNY   72  72 100 W6        29.71F FOG
LATROBE        LGT RAIN  72  72 100 SW16G28   29.71S FOG
WASHINGTON CO* CLOUDY    70  64  83 W7        29.74R
$$

PAZ004>006-010>012-017>019-024>028-033>037-041-042-045-046-049>053-232200-
CENTRAL PENNSYLVANIA

CITY           SKY/WX    TMP DP  RH WIND       PRES   REMARKS
BRADFORD       LGT RAIN  70  69  97 VRB6      29.66S
DUBOIS         CLOUDY    73  68  84 SW13      29.65F
CLEARFIELD     LGT RAIN  74  71  91 S12G23    29.67F
JOHNSTOWN      TSTM      70  69  97 W14G23    29.74S VSB 3/4
ALTOONA        PTSUNNY   76  71  85 W5        29.71S
STATE COLLEGE  RAIN      75  72  88 SW12      29.68F
WILLIAMSPORT   PTSUNNY   82  72  71 SW8       29.61F
SELINSGROVE    CLOUDY    82  75  79 S9        29.65S
FT INDIANTOWN  TSTM      76  76 100 W7        29.66F
CAPITAL CITY   PTSUNNY   80  74  81 W5        29.66S
HARRISBURG     PTSUNNY   78  76  93 NW10      29.64F
YORK           MOSUNNY   87  73  62 SW12G26   29.66F
$$

PAZ038>040-043-044-047-048-054-055-060>062-067>071-232200-
EASTERN PENNSYLVANIA

CITY           SKY/WX    TMP DP  RH WIND       PRES   REMARKS
SCRANTON       CLOUDY    80  70  71 SW6       29.65F
MOUNT POCONO   CLOUDY    74  70  87 SW7       29.73F
ALLENTOWN      LGT RAIN  83  71  67 SW9       29.66F
QUAKERTOWN*    MOCLDY    84  75  74 S9        29.68F
READING        CLOUDY    78  77  96 S5        29.63F
LANCASTER      CLOUDY    89  76  65 S15G24    29.65F HX 100
COATESVILLE    PTCLDY    84  75  74 S9G16     29.70F
POTTSTOWN      PTSUNNY   83  74  74 SW9G18    29.68F
BLUE BELL      PTSUNNY   86  73  66 SW16G24   29.69S
DOYLESTOWN     PTSUNNY   85  73  67 SW12      29.67F
WILLOW GROVE   NOT AVBL
NORTH PHILA    PTSUNNY   89  73  59 SW13G23   29.69F HX  97
PHILADELPHIA   PTSUNNY   89  72  56 SW17      29.69F HX  96
$$




USA.gov is the U.S. government's official web portal to all federal, state and local government web resources and services.